This is the latest recevied weather packets stored in our database for station/object G4MDP-13. If no packets are shown the sender has not sent any weather packets the latest 1 day(s).
| Time | Temp. | Humidity | Pressure | Rain* | Wind** | Luminosity | Snow |
|---|---|---|---|---|---|---|---|
| 1778029517 | 11.11° C | 77% | 1006.1 hPa | 0 mm | 1.79 m/s, 146° | - | - |
| 1778029458 | 11.11° C | 77% | 1006.1 hPa | 0 mm | 1.79 m/s, 147° | - | - |
| 1778028558 | 11.11° C | 76% | 1006.2 hPa | 0 mm | 1.79 m/s, 147° | - | - |
| 1778028557 | 11.11° C | 76% | 1006.2 hPa | 0 mm | 1.79 m/s, 147° | - | - |
| 1778027717 | 11.11° C | 75% | 1005.9 hPa | 0 mm | 1.79 m/s, 145° | - | - |
| 1778027658 | 11.11° C | 75% | 1005.9 hPa | 0 mm | 1.79 m/s, 147° | - | - |
| 1778026758 | 11.11° C | 75% | 1006.2 hPa | 0 mm | 1.79 m/s, 143° | - | - |
| 1778026757 | 11.11° C | 75% | 1006.2 hPa | 0 mm | 1.79 m/s, 143° | - | - |
| 1778025917 | 11.11° C | 75% | 1006.3 hPa | 0 mm | 1.79 m/s, 144° | - | - |
| 1778025858 | 11.11° C | 75% | 1006.2 hPa | 0 mm | 1.79 m/s, 145° | - | - |
| 1778024958 | 11.11° C | 74% | 1006 hPa | 0 mm | 1.79 m/s, 148° | - | - |
| 1778024957 | 11.11° C | 74% | 1006 hPa | 0 mm | 1.79 m/s, 148° | - | - |
| 1778024117 | 11.67° C | 71% | 1006 hPa | 0 mm | 1.79 m/s, 145° | - | - |
| 1778024058 | 11.67° C | 71% | 1006 hPa | 0 mm | 1.79 m/s, 144° | - | - |
| 1778023158 | 11.67° C | 67% | 1006.2 hPa | 0 mm | 1.79 m/s, 136° | - | - |
| 1778023157 | 11.67° C | 67% | 1006.2 hPa | 0 mm | 1.79 m/s, 136° | - | - |
| 1778022317 | 12.22° C | 63% | 1006.1 hPa | 0 mm | 1.79 m/s, 148° | - | - |
| 1778022262 | 12.22° C | 63% | 1006.1 hPa | 0 mm | 1.34 m/s, 149° | - | - |
| 1778021358 | 12.22° C | 62% | 1005.8 hPa | 0 mm | 1.79 m/s, 144° | - | - |
| 1778021357 | 12.22° C | 62% | 1005.8 hPa | 0 mm | 1.79 m/s, 144° | - | - |
| 1778020517 | 12.22° C | 60% | 1005.9 hPa | 0 mm | 1.79 m/s, 141° | - | - |
| 1778020458 | 12.22° C | 60% | 1005.9 hPa | 0 mm | 1.79 m/s, 147° | - | - |
| 1778019558 | 12.78° C | 58% | 1006 hPa | 0 mm | 1.79 m/s, 153° | - | - |
| 1778019557 | 12.78° C | 58% | 1006 hPa | 0 mm | 1.79 m/s, 153° | - | - |
| 1778018717 | 12.78° C | 57% | 1005.9 hPa | 0 mm | 1.79 m/s, 152° | - | - |
* Rain latest hour (hover to see other rain measurements)
** Current wind speed in m/s (hover to see current wind gust speed)